OPS 4682 DEB, 18967

Orbit data source: Space-Track

OPS 4682 DEB, 18967 is space debris in LEO originally from a launch on Sat, 03 Apr 1965 UTC launched from the Air Force Western Test Range (AFWTR). Debris objects in space refer to the collection of defunct objects orbiting the Earth. Examples of debris include non-operational satellites, rocket bodies, and fragments generated from explosions, collisions, or faulty payload assembly.

Loading next visibility...
Identifier
18967, 1965-027AP
Orbit
LEO
Country
Flag of USUS
Related business
Manufacturer
Unknown
Mission
Spacecraft
Bus & Motor
Unknown
Mass
Unknown
Launch date (UTC)
1965-04-03 (61 years ago)
Launch vehicle
Unknown
Launch site
Air Force Western Test Range (AFWTR)
Object type
Payload
Rocket body
Debris
Shape & HBR
Unknown shape, 0.1 m
Radar Cross Section
Medium (>0.1 m² and <1 m²)

Expand to show TLE details & history
Last TLE update: 17 hours ago

TLE from 17 hours ago
0 OPS 4682 DEB
1 18967U 65027AP  26177.30420046 -.00000096  00000-0 -36290-3 0  9993
2 18967  90.2448  10.5878 0029787 120.2190  62.9392 12.96037862819493
Epoch: 2026-06-26T07:18Z
TLE epoch observation values (Epoch: 2026-06-26T07:18:02.919Z)
Latitude
-3.59514°
Longitude
166.6257°
Altitude
1,270.744 km
Speed
7.225 km/s
True Right ascension
12h 42m 17s
True Declination
-3° 34' 30"
Sunlit
Object was in daylight at epoch
Visualization orbit readout
Latitude
Unknown
Longitude
Unknown
Altitude
Unknown
Speed
Unknown
Apparent Right ascension
Unknown
Apparent Declination
Unknown
Sunlit
N/A
Visualization observer readout
Local Sidereal Time
11:43:42
Azimuth
Unknown
Elevation
Unknown
Doppler factor
Unknown
Orbital elements
Apogee altitude
1,297.579 km
Perigee altitude
1,251.987 km
Semi-major axis
7,652.92 km
Eccentricity
0.00298
Inclination
90.2448°
RAAN
10.5878°
Arg. of periapsis
120.219°
True anomaly
63.24368°
Mean anomaly
62.9392°
Eccentric anomaly
63.09139°
Mean motion
3.24192 °/min
Orbital period
111.05 mins
BSTAR
-0.0003629
Loading maneuver chart data...
Computing Atmospheric mass density...
Loading historical data...
Loading historical data...
Loading historical data...
Loading historical data...
Loading historical data...
Loading historical data...
Loading historical data...

Documentation

Showing up to 5 results
|